FW6259 Weather Reports


time (UTC)temp
C
wind
direction
speed
KPH
gust
KPH
rain 1hr
cm
rain 24hr
cm
rain mn
cm
humidity
%
barometer
mb
20221207234503 -3 359 0.0 0.0 0.00 0.00 0.00 90 994.3
20221207233103 -3 55 0.0 0.0 0.00 0.00 0.00 91 994.2
20221207231504 -3 348 0.0 0.0 0.00 0.00 0.00 92 994.4
20221207230053 -3 321 0.0 0.0 0.00 0.00 0.00 93 994.6
20221207224547 -3 53 0.0 0.0 0.00 0.00 0.00 94 994.8
20221207223057 -5 4 0.0 0.0 0.00 0.00 0.00 96 994.9
20221207221505 -7 326 0.0 0.0 0.00 0.00 0.00 94 995.1
20221207220055 -8 157 0.0 0.0 0.00 0.00 0.00 92 995.2
20221207214510 -8 254 0.0 0.0 0.00 0.00 0.00 92 995.4
20221207213048 -8 126 0.0 0.0 0.00 0.00 0.00 92 995.6
20221207211503 -8 126 0.0 0.0 0.00 0.00 0.00 92 995.8
20221207210051 -8 125 0.0 0.0 0.00 0.00 0.00 92 996.0
20221207204603 -8 182 0.0 0.0 0.00 0.00 0.00 92 996.2
20221207203053 -8 243 0.0 0.0 0.00 0.00 0.00 92 996.2
20221207201552 -8 243 0.0 0.0 0.00 0.00 0.00 92 996.7
20221207200054 -8 243 0.0 0.0 0.00 0.00 0.00 92 996.9
20221207194547 -8 240 0.0 0.0 0.00 0.00 0.00 92 997.0
20221207193102 -8 245 0.0 0.0 0.00 0.00 0.00 92 997.0
20221207191552 -8 245 0.0 0.0 0.00 0.00 0.00 91 997.3
20221207190055 -8 238 0.0 0.0 0.00 0.00 0.00 92 997.4
20221207184614 -8 239 0.0 0.0 0.00 0.00 0.00 92 997.4
20221207183057 -8 238 0.0 0.0 0.00 0.00 0.00 92 997.7
20221207181552 -8 239 0.0 0.0 0.00 0.00 0.00 92 997.7
20221207180056 -8 236 0.0 0.0 0.00 0.00 0.00 92 998.0
20221207174557 -8 235 0.0 0.0 0.00 0.00 0.00 92 998.0
20221207173102 -8 238 0.0 0.0 0.00 0.00 0.00 92 998.3
20221207171548 -8 226 0.0 0.0 0.00 0.00 0.00 92 998.4
20221207170044 -8 248 0.0 0.0 0.00 0.00 0.00 92 998.4
20221207164557 -8 254 0.0 0.0 0.00 0.00 0.00 92 998.6
20221207163049 -8 243 0.0 0.0 0.00 0.00 0.00 92 998.9
20221207161505 -8 237 0.0 0.0 0.00 0.00 0.00 91 999.0
20221207160047 -8 249 0.0 0.0 0.00 0.00 0.00 92 999.3
20221207154617 -8 236 0.0 0.0 0.00 0.00 0.00 92 999.1
20221207153052 -8 245 0.0 0.0 0.00 0.00 0.00 92 999.4
20221207151502 -8 240 0.0 0.0 0.00 0.00 0.00 92 999.6
20221207150052 -8 213 0.0 0.0 0.00 0.00 0.00 92 999.9
20221207144546 -8 256 0.0 0.0 0.00 0.00 0.00 92 999.9
20221207143054 -8 256 0.0 0.0 0.00 0.00 0.00 92 1000.1
20221207141606 -8 256 0.0 0.0 0.00 0.00 0.00 92 1000.3
20221207140057 -8 256 0.0 0.0 0.00 0.00 0.00 92 1000.3
20221207134602 -8 263 0.0 0.0 0.00 0.00 0.00 92 1000.5
20221207133042 -8 259 0.0 0.0 0.00 0.00 0.00 92 1000.8
20221207131555 -8 243 0.0 0.0 0.00 0.00 0.00 91 1000.9
20221207130041 -8 247 0.0 0.0 0.00 0.00 0.00 91 1001.2
20221207124559 -8 238 0.0 0.0 0.00 0.00 0.00 92 1001.3
20221207123044 -8 212 0.0 0.0 0.00 0.00 0.00 92 1001.5
20221207121555 -8 217 0.0 0.0 0.00 0.00 0.00 92 1001.6
20221207120057 -8 134 0.0 0.0 0.00 0.00 0.00 92 1001.6
20221207114556 -7 139 0.0 0.0 0.00 0.00 0.00 92 1001.8
20221207113041 -7 136 0.0 0.0 0.00 0.00 0.00 92 1002.0
20221207111556 -7 209 0.0 0.0 0.00 0.00 0.00 92 1002.1
20221207110044 -7 251 0.0 0.0 0.00 0.00 0.00 92 1002.2
20221207104555 -7 243 0.0 0.0 0.00 0.00 0.00 92 1002.4
20221207103048 -7 304 0.0 0.0 0.00 0.00 0.00 92 1002.3
20221207101557 -7 304 0.0 0.0 0.00 0.00 0.00 92 1002.4
20221207100048 -7 329 0.0 0.0 0.00 0.00 0.00 92 1002.6
20221207094600 -8 330 0.0 0.0 0.00 0.00 0.00 92 1002.7
20221207093050 -8 330 0.0 0.0 0.00 0.00 0.00 92 1002.7
20221207091555 -8 330 0.0 0.0 0.00 0.00 0.00 92 1002.9
20221207090044 -8 322 0.0 1.6 0.00 0.00 0.00 92 1002.9
20221207084552 -8 346 0.0 1.6 0.00 0.00 0.00 92 1003.0
20221207083043 -8 230 0.0 1.6 0.00 0.00 0.00 92 1003.1
20221207081554 -8 158 0.0 1.6 0.00 0.00 0.00 92 1003.2
20221207080059 -8 99 0.0 1.6 0.00 0.00 0.00 92 1003.2
20221207074606 -8 87 0.0 4.8 0.00 0.00 0.00 92 1003.3
20221207073109 -8 97 1.6 4.8 0.00 0.00 0.00 92 1003.2
20221207071650 -8 349 0.0 4.8 0.00 0.00 0.00 92 1003.5
20221207070111 -8 20 0.0 3.2 0.00 0.00 0.00 92 1003.6
20221207064603 -8 42 0.0 1.6 0.00 0.00 0.00 92 1003.9
20221207063101 -8 353 0.0 1.6 0.00 0.00 0.00 92 1004.0
20221207061605 -9 357 0.0 1.6 0.00 0.00 0.00 92 1004.2
20221207060106 -9 75 0.0 1.6 0.00 0.00 0.00 91 1004.2
20221207054552 -9 23 0.0 0.0 0.00 0.00 0.00 91 1004.3
20221207053043 -9 90 0.0 1.6 0.00 0.00 0.00 91 1004.5
20221207051555 -9 27 0.0 3.2 0.00 0.00 0.00 91 1004.6
20221207050042 -9 182 0.0 1.6 0.00 0.00 0.00 91 1004.8
20221207044623 -9 218 0.0 0.0 0.00 0.00 0.00 91 1005.3
20221207043058 -9 218 0.0 1.6 0.00 0.00 0.00 91 1005.3
20221207041612 -9 226 0.0 0.0 0.00 0.00 0.00 91 1005.2
20221207040047 -9 225 0.0 0.0 0.00 0.00 0.00 92 1005.3
20221207034639 -9 3 0.0 3.2 0.00 0.00 0.00 91 1005.2
20221207033050 -9 328 0.0 3.2 0.00 0.00 0.00 92 1005.2
20221207031506 -10 321 0.0 3.2 0.00 0.00 0.00 92 1005.4
20221207030052 -10 228 0.0 0.0 0.00 0.00 0.00 91 1005.6
20221207024547 -10 228 0.0 1.6 0.00 0.00 0.00 91 1005.9
20221207023101 -10 226 0.0 1.6 0.00 0.00 0.00 91 1006.0
20221207021551 -10 226 0.0 0.0 0.00 0.00 0.00 91 1006.2
20221207020102 -10 225 0.0 1.6 0.00 0.00 0.00 91 1006.3
20221207014557 -10 226 0.0 0.0 0.00 0.00 0.00 91 1006.4
20221207013119 -10 150 0.0 0.0 0.00 0.00 0.00 91 1006.7
20221207011550 -10 150 0.0 0.0 0.00 0.00 0.00 91 1006.7
20221207010056 -10 165 0.0 3.2 0.00 0.00 0.00 91 1006.9
20221207004546 -10 149 0.0 0.0 0.00 0.00 0.00 91 1007.0
20221207003057 -10 154 0.0 3.2 0.00 0.00 0.00 91 1007.3
20221207001552 -10 131 0.0 1.6 0.00 0.00 0.00 91 1007.3
20221207000055 -10 124 0.0 1.6 0.00 0.00 0.00 91 1007.4